PIA702 EGCC-OPIS

Flight info

Callsign PIA702
Flight time N/A
Altitude 37000
Route DESIG L603 LAMSO DCT RKN DCT NOMKA L620 SUVUT DCT OMELO DCT VLM DCT TIBLA DCT ROMIS/N0480F390 DCT KOPAT DCT KARIL DCT UDROS UN743 GAKSU UT310 SIN UN644 KARDE UL851 TBN UR317 REBLO DCT TABAS DCT MATAL M11 LUSAL N701 BAKUV L850 ABROL/N0488F410 L850 DUKAN B449 DOLOS B475 NINOP A909 LEMOD N644 DOBAT/N0490F390 N644 REGET J139 KALMI
Aircraft B772/H-SDE2E3FGHIJ5LORVWXY/LB1D1

Departure

Time 2026-05-07 19:16
Airport Manchester Airport (EGCC)

Arrival

Time N/A
Airport Islamabad International Airport (OPIS)
Time Latitude Longitude Altitude Speed Heading
2026-05-07 18:41 53.36851 -2.28604 259 ft 0 kts 315°
2026-05-07 19:00 53.36834 -2.28575 259 ft 4 kts 315°
2026-05-07 19:00 53.36816 -2.28546 259 ft 4 kts 311°
2026-05-07 19:00 53.36805 -2.28510 259 ft 4 kts 264°
2026-05-07 19:00 53.36811 -2.28483 259 ft 1 kts 225°
2026-05-07 19:01 53.36801 -2.28500 259 ft 4 kts 224°
2026-05-07 19:01 53.36782 -2.28531 259 ft 4 kts 224°
2026-05-07 19:01 53.36763 -2.28563 259 ft 4 kts 224°
2026-05-07 19:01 53.36758 -2.28571 259 ft 0 kts 224°
2026-05-07 19:06 53.36754 -2.28578 259 ft 5 kts 224°
2026-05-07 19:06 53.36696 -2.28673 259 ft 15 kts 224°
2026-05-07 19:07 53.36672 -2.28712 259 ft 12 kts 224°
2026-05-07 19:07 53.36564 -2.28736 259 ft 12 kts 133°
2026-05-07 19:07 53.36508 -2.28636 259 ft 12 kts 135°
2026-05-07 19:07 53.36450 -2.28540 259 ft 12 kts 135°
2026-05-07 19:08 53.36407 -2.28426 259 ft 12 kts 110°
2026-05-07 19:08 53.36362 -2.28313 259 ft 12 kts 135°
2026-05-07 19:08 53.36302 -2.28214 259 ft 13 kts 135°
2026-05-07 19:08 53.36239 -2.28107 259 ft 13 kts 135°
2026-05-07 19:09 53.36174 -2.27999 259 ft 14 kts 137°
2026-05-07 19:09 53.36095 -2.27893 259 ft 15 kts 142°
2026-05-07 19:09 53.36014 -2.27789 259 ft 15 kts 142°
2026-05-07 19:09 53.35922 -2.27727 259 ft 15 kts 179°
2026-05-07 19:10 53.35820 -2.27723 256 ft 15 kts 159°
2026-05-07 19:10 53.35725 -2.27636 253 ft 16 kts 159°
2026-05-07 19:10 53.35630 -2.27531 250 ft 16 kts 129°
2026-05-07 19:10 53.35655 -2.27381 255 ft 14 kts 50°
2026-05-07 19:11 53.35725 -2.27235 259 ft 17 kts 51°
2026-05-07 19:11 53.35791 -2.27100 260 ft 14 kts 51°
2026-05-07 19:11 53.35845 -2.26959 260 ft 14 kts 58°
2026-05-07 19:11 53.35906 -2.26820 260 ft 17 kts 56°
2026-05-07 19:12 53.35980 -2.26651 260 ft 18 kts 50°
2026-05-07 19:12 53.36041 -2.26527 260 ft 8 kts 51°
2026-05-07 19:12 53.36078 -2.26451 260 ft 10 kts 51°
2026-05-07 19:12 53.36148 -2.26304 260 ft 21 kts 51°
2026-05-07 19:13 53.36228 -2.26183 260 ft 14 kts 49°
2026-05-07 19:13 53.36269 -2.26066 260 ft 11 kts 85°
2026-05-07 19:13 53.36277 -2.25941 260 ft 11 kts 72°
2026-05-07 19:13 53.36281 -2.25816 262 ft 12 kts 111°
2026-05-07 19:14 53.36218 -2.25761 264 ft 9 kts 204°
2026-05-07 19:14 53.36187 -2.25815 263 ft 0 kts 231°
2026-05-07 19:15 53.36150 -2.25893 263 ft 26 kts 231°
2026-05-07 19:16 53.35879 -2.26452 273 ft 97 kts 231°
2026-05-07 19:16 53.35321 -2.27605 251 ft 159 kts 231°
2026-05-07 19:16 53.34601 -2.29143 721 ft 169 kts 231°
2026-05-07 19:16 53.33871 -2.30634 1621 ft 162 kts 226°
2026-05-07 19:17 53.33146 -2.32111 2294 ft 172 kts 228°
2026-05-07 19:17 53.32423 -2.33899 2539 ft 199 kts 241°
2026-05-07 19:17 53.32086 -2.36318 2698 ft 231 kts 266°
2026-05-07 19:17 53.32463 -2.39071 3030 ft 256 kts 295°
2026-05-07 19:18 53.33715 -2.41242 3624 ft 270 kts 330°
2026-05-07 19:18 53.35525 -2.42120 4213 ft 274 kts 349°
2026-05-07 19:18 53.37417 -2.42776 4734 ft 280 kts 344°
2026-05-07 19:18 53.39303 -2.43619 5014 ft 283 kts 342°
2026-05-07 19:19 53.41199 -2.44539 4998 ft 282 kts 341°
2026-05-07 19:19 53.43065 -2.45464 4993 ft 277 kts 345°
2026-05-07 19:19 53.44331 -2.45662 4979 ft 279 kts
2026-05-07 19:19 53.46569 -2.43673 4998 ft 282 kts 54°
2026-05-07 19:20 53.47321 -2.40721 5000 ft 274 kts 85°
2026-05-07 19:20 53.47478 -2.38589 4999 ft 272 kts 85°
2026-05-07 19:20 53.47892 -2.34388 5077 ft 278 kts 82°
2026-05-07 19:20 53.48253 -2.31194 5756 ft 279 kts 82°
2026-05-07 19:21 53.48619 -2.27987 6478 ft 281 kts 82°
2026-05-07 19:21 53.48989 -2.24744 7126 ft 284 kts 82°
2026-05-07 19:21 53.49235 -2.22577 7514 ft 286 kts 82°
2026-05-07 19:21 53.49591 -2.19263 8121 ft 290 kts 82°
2026-05-07 19:22 53.49943 -2.15913 8716 ft 293 kts 82°
2026-05-07 19:22 53.50298 -2.12529 9307 ft 296 kts 82°
2026-05-07 19:22 53.50774 -2.07987 10029 ft 300 kts 82°
2026-05-07 19:22 53.51141 -2.04480 10322 ft 313 kts 82°
2026-05-07 19:23 53.51400 -2.02002 10413 ft 325 kts 82°
2026-05-07 19:23 53.51794 -1.98213 10556 ft 343 kts 82°
2026-05-07 19:23 53.52212 -1.94159 10724 ft 361 kts 83°
2026-05-07 19:23 53.52389 -1.89859 10974 ft 376 kts 94°
2026-05-07 19:24 53.52073 -1.85464 11587 ft 382 kts 104°
2026-05-07 19:24 53.51353 -1.81161 12392 ft 383 kts 110°
2026-05-07 19:24 53.50565 -1.76862 13288 ft 386 kts 109°
2026-05-07 19:24 53.49785 -1.72536 14125 ft 388 kts 109°
2026-05-07 19:25 53.49010 -1.68164 14821 ft 393 kts 109°
2026-05-07 19:25 53.48231 -1.63740 15473 ft 398 kts 109°
2026-05-07 19:25 53.47442 -1.59255 16136 ft 402 kts 109°
2026-05-07 19:25 53.46638 -1.54735 16820 ft 406 kts 109°
2026-05-07 19:26 53.45819 -1.50190 17495 ft 409 kts 109°
2026-05-07 19:26 53.44989 -1.45595 18127 ft 413 kts 109°
2026-05-07 19:26 53.44151 -1.40969 18669 ft 418 kts 109°
2026-05-07 19:26 53.43302 -1.36276 19195 ft 421 kts 109°
2026-05-07 19:27 53.42448 -1.31564 19757 ft 424 kts 109°
2026-05-07 19:27 53.41584 -1.26807 20291 ft 427 kts 109°
2026-05-07 19:27 53.40751 -1.22085 20807 ft 431 kts 108°
2026-05-07 19:27 53.39896 -1.17256 21292 ft 434 kts 109°
2026-05-07 19:28 53.39010 -1.12397 21794 ft 438 kts 109°
2026-05-07 19:28 53.38109 -1.07514 22296 ft 441 kts 109°
2026-05-07 19:28 53.37197 -1.02592 22784 ft 444 kts 109°
2026-05-07 19:28 53.36283 -0.97656 23359 ft 445 kts 109°
2026-05-07 19:29 53.35363 -0.92694 23828 ft 448 kts 109°
2026-05-07 19:29 53.34437 -0.87700 24232 ft 451 kts 109°
2026-05-07 19:29 53.33505 -0.82683 24656 ft 453 kts 109°
2026-05-07 19:29 53.32567 -0.77646 25097 ft 454 kts 109°
2026-05-07 19:30 53.31636 -0.72662 25516 ft 456 kts 109°
2026-05-07 19:30 53.30684 -0.67584 25932 ft 458 kts 109°
2026-05-07 19:30 53.29725 -0.62494 26334 ft 460 kts 109°
2026-05-07 19:30 53.28759 -0.57380 26732 ft 462 kts 109°
2026-05-07 19:31 53.27789 -0.52247 27126 ft 465 kts 109°
2026-05-07 19:31 53.26811 -0.47092 27512 ft 467 kts 109°
2026-05-07 19:31 53.25827 -0.41908 27894 ft 469 kts 109°
2026-05-07 19:31 53.24852 -0.36753 28228 ft 471 kts 109°
2026-05-07 19:32 53.23850 -0.31453 28416 ft 478 kts 109°
2026-05-07 19:32 53.22842 -0.26159 28682 ft 480 kts 109°
2026-05-07 19:32 53.21832 -0.20913 29043 ft 481 kts 109°
2026-05-07 19:32 53.20803 -0.15598 29408 ft 482 kts 109°
2026-05-07 19:33 53.19772 -0.10270 29719 ft 484 kts 109°
2026-05-07 19:33 53.18735 -0.04926 29974 ft 486 kts 110°
2026-05-07 19:33 53.17690 0.00447 30246 ft 486 kts 110°
2026-05-07 19:33 53.16654 0.05783 30734 ft 482 kts 110°
2026-05-07 19:34 53.15623 0.11086 31065 ft 482 kts 110°
2026-05-07 19:34 53.14589 0.16396 31342 ft 482 kts 110°
2026-05-07 19:34 53.13549 0.21716 31595 ft 483 kts 110°
2026-05-07 19:34 53.12512 0.27012 31900 ft 483 kts 110°
2026-05-07 19:35 53.11477 0.32276 32223 ft 482 kts 110°
2026-05-07 19:35 53.10434 0.37573 32545 ft 482 kts 110°
2026-05-07 19:35 53.09389 0.42863 32863 ft 482 kts 110°
2026-05-07 19:35 53.08340 0.48156 33173 ft 481 kts 110°
2026-05-07 19:36 53.07292 0.53434 33518 ft 480 kts 110°
2026-05-07 19:36 53.06246 0.58687 33916 ft 478 kts 110°
2026-05-07 19:36 53.05199 0.63929 34185 ft 478 kts 110°
2026-05-07 19:36 53.04145 0.69189 34375 ft 480 kts 110°
2026-05-07 19:37 53.03089 0.74447 34574 ft 481 kts 110°
2026-05-07 19:37 53.02029 0.79713 34788 ft 481 kts 110°
2026-05-07 19:37 53.00964 0.84990 35028 ft 482 kts 110°
2026-05-07 19:37 52.99911 0.90201 35177 ft 484 kts 110°
2026-05-07 19:38 52.97809 1.00883 35476 ft 489 kts 107°
2026-05-07 19:38 52.97080 1.06386 35757 ft 488 kts 102°
2026-05-07 19:38 52.96460 1.11924 36008 ft 488 kts 102°
2026-05-07 19:39 52.95846 1.17459 36209 ft 489 kts 102°
2026-05-07 19:39 52.95223 1.23010 36410 ft 490 kts 102°
2026-05-07 19:39 52.94589 1.28565 36607 ft 490 kts 102°
2026-05-07 19:39 52.93945 1.34108 36823 ft 490 kts 102°
2026-05-07 19:40 52.93302 1.39582 36986 ft 491 kts 103°
2026-05-07 19:40 52.92642 1.45154 37050 ft 494 kts 103°
2026-05-07 19:40 52.91303 1.56366 37085 ft 496 kts 103°
2026-05-07 19:41 52.89964 1.67502 37092 ft 489 kts 103°
2026-05-07 19:41 52.88628 1.78524 37102 ft 487 kts 103°